Regional Weather Roundup
Issued by NWS Wakefield, VA

Home | Current Version | Previous Version | Text Only | Print | Product List | Glossary On
Versions: 1 2 3 4 5 6 7 8 9 10 11 12 13 14 15 16 17 18 19 20 21 22 23 24 25 26 27 28
000
ASUS41 KAKQ 250914
RWRAKQ

REGIONAL WEATHER ROUNDUP
NATIONAL WEATHER SERVICE WAKEFIELD VA
400 AM EST SAT FEB 25 2017

Note: "fair" indicates few or no clouds below 12,000 feet with no
significant weather and/or obstructions to visibility. * = Denotes
station may not report precipitation (e.g., rain,snow,etc.),
thunder or fog.

VAZ042-051-052>054-056-251000-
NORTHERN VIRGINIA

CITY           SKY/WX    TMP DP  RH WIND       PRES   REMARKS
WASH NATIONAL  PTCLDY    61  58  90 S14       29.74S
DULLES         CLOUDY    60  56  86 S7        29.72F
FORT BELVOIR   CLOUDY    58  55  89 SE6       29.73F
QUANTICO       CLOUDY    56  55  97 S9        29.74F
FREDERICKSBRG* PTCLDY    61  59  92 S9        29.73S
STAFFORD*      CLOUDY    59  58  97 S5        29.77F
WARRENTON      CLOUDY    61  55  79 CALM      29.73S
CULPEPER*      CLOUDY    59  57  94 CALM      29.73F
MANASSAS*        N/A     59  56  89 S7        29.73F
LEESBURG*      PTCLDY    59  59 100 MISG      29.72F
WINCHESTER     MOCLDY    59  52  77 S3        29.67F
FRONT ROYAL*   MOSUNNY   61  54  77 S7        29.67F
LURAY*         NOT AVBL
$$

VAZ048-049-060>072-079>083-251000-
CENTRAL AND SOUTH CENTRAL VIRGINIA

CITY           SKY/WX    TMP DP  RH WIND       PRES   REMARKS
RICHMOND       CLEAR     58  57  97 S9        29.76F
CHESTERFIELD*  FAIR      57  43  58 S7        29.78F
PETERSBURG*    CLEAR     56  55  96 CALM      29.77F
HANOVER        PTCLDY    59  55  87 S7        29.77F
TAPPAHANNOCK*  PTCLDY    59  59 100 S7        29.77F
QUINTON*       NOT AVBL
CHARLOTTSVILLE PTCLDY    62  55  77 S9        29.72F
GORDONSVILLE*  CLOUDY    62  58  86 S5        29.72F
ORANGE*        CLOUDY    61  55  82 CALM      29.74S
LOUISA*        CLOUDY    66  61  82 SW3       29.73S
BUMPASS*       NOT AVBL
FARMVILLE*     MOCLDY    62  58  87 S5        29.73F
CREWE*         FAIR      59  59 100 S3        29.76F
FORT PICKETT*  FAIR      58  55  88 S6        29.76F
CHASE CITY*    FAIR      58  56  94 CALM      29.76S
CLARKSVILLE*   FAIR      57  57 100 S5        29.76S
SOUTH HILL*    CLEAR     55  55 100 S6        29.82F
LAWRENCEVILLE* NOT AVBL
EMPORIA*       FOG       48  48 100 CALM      29.79F VSB 1
$$

VAZ088>098-251000-
SOUTHEAST VIRGINIA

CITY           SKY/WX    TMP DP  RH WIND       PRES   REMARKS
NORFOLK        CLEAR     56  55  97 CALM      29.78F
VIRGINIA BEACH PTCLDY    51  49  92 CALM      29.78F
NORFOLK NAVAL  CLEAR     56  54  93 CALM      29.79F
WEST POINT*    PTCLDY    58  56  95 SE3       29.78F
SALUDA*        NOT AVBL
NEWPORT NEWS   CLEAR     56  54  93 SW5       29.78F
LANGLEY AFB    CLEAR     55  55  99 S3        29.78F
FORT EUSTIS    CLEAR     57  55  94 CALM      29.76S
WILLIAMSBURG*  CLEAR     55  55 100 CALM      29.79S
HR EXEC AP*    NOT AVBL
FRANKLIN*      FOG       49  49  98 CALM      29.78F VSB 1/4
US460-WAKEFLD  PTCLDY    52  52 100 CALM      29.78S FOG
$$

VAZ020-022-025-037-045-251000-
WEST CENTRAL AND SOUTHWEST VIRGINIA

CITY           SKY/WX    TMP DP  RH WIND       PRES   REMARKS
STAUNTON*      PTCLDY    60  52  75 S8        29.71F
WAYNESBORO*    PTSUNNY   59  51  75 E7        29.71F
HOT SPRINGS VA CLEAR     54  45  71 CALM      29.75F
LYNCHBURG      CLOUDY    60  54  80 S9        29.75F
DANVILLE       MOCLDY    61  56  83 S7        29.74F
SOUTH BOSTON*  CLOUDY    62  60  94 S5        29.75F
MARTINSVILLE   MOCLDY    56  51  82 CALM      29.76F
ROANOKE        MOCLDY    60  52  74 SE7       29.73F
BLACKSBURG     PTCLDY    58  52  78 CALM      29.76F
DUBLIN*        MOCLDY    60  52  73 S9        29.73F
MARION*        PTCLDY    60  50  69 CALM      29.72F
HILLSVILLE*    CLOUDY    59  52  79 S3        29.73F
RICHLANDS*     CLOUDY    61  48  64 S8        29.66F
WISE*          CLOUDY    59  50  72 CALM      29.67F
ABINGDON*      MOCLDY    64  49  57 SW6       29.66F
$$

MDZ021>025-VAZ099-100-251000-
SOUTHERN MARYLAND AND THE DELMARVA PENINSULA

CITY           SKY/WX    TMP DP  RH WIND       PRES   REMARKS
PATUXENT RIVER PTCLDY    60  58  92 S7        29.76F
BAY BRIDGE APT CLEAR     55  54  94 SE7       29.75F
LEONARDTOWN    CLOUDY    59  55  88 SE5       29.78S
DOVER          PTCLDY    55  55 100 SE6       29.76F
GEORGETOWN     PTCLDY    55  54  96 S6        29.79F
EASTON         CLEAR     60  56  87 S10       29.80F
CAMBRIDGE        N/A     55  54  94 S6        29.77F
SALISBURY      PTCLDY    53  53 100 CALM      29.78F
OCEAN CITY     CLEAR     50  49  96 CALM      29.80F FOG
WALLOPS ISLAND PTCLDY    51  51 100 SE5       29.80F
ACCOMACK*      CLEAR     57  55  91 S6        29.79F
$$

NCZ012>017-030>032-251000-
NORTH CENTRAL AND EASTERN NORTH CAROLINA

CITY           SKY/WX    TMP DP  RH WIND       PRES   REMARKS
ROANOKE RAPIDS FAIR      52  52 100 CALM      29.77F FOG
RALEIGH        PTCLDY    59  56  89 S5        29.77F
ELIZABETH CITY FOG       52  50  93 CALM      29.79F VSB 1/4
AHOSKIE*         N/A     48  48  99 CALM      29.79F
EDENTON*       CLOUDY    51  49  94 CALM      29.79F FOG
CURRITUCK*     CLEAR     53  53 100 CALM      29.79F FOG
KILL DEVIL HLS NOT AVBL
MANTEO         CLEAR     52  52 100 CALM      29.79F FOG
CAPE HATTERAS  CLEAR     61  58  90 N5        29.78S FOG
TARBORO*       NOT AVBL
GOLDSBORO      FOG       54  54 100 CALM      29.76S VSB 3/4
WASHINGTON       N/A     50  50  99 CALM      29.78F FOG
GREENVILLE     CLEAR     52  52 100 CALM      29.80F FOG
NEW BERN       FOG       50  50 100 CALM      29.79F VSB 3/4
WILMINGTON     FOG       52  52 100 CALM      29.78F VSB 3/4
$$

VAZ048-251000-
ELSEWHERE

CITY           SKY/WX    TMP DP  RH WIND       PRES   REMARKS
HARRISBURG PA  MOCLDY    61  58  90 SE6       29.70F
BALTIMORE      MOCLDY    53  53 100 E3        29.74F
ANNAPOLIS      CLEAR     54  53  97 S6        29.75F
ANDREWS AFB    PTCLDY    60  57  89 S16       29.73F
PHILADELPHIA   MOCLDY    56  53  90 S5        29.78F
HENDERSON NC   CLEAR     55  54  94 S5        29.77S
GREENSBORO     PTCLDY    60  56  86 S10       29.73F
ROCKY MOUNT    FOG       52  52 100 CALM      29.77F VSB 1/2
$$

VAZ100-251000-
MARINE

STATION/POSITION TIME  TEMP    WIND        PRES    WAVE   SWELL
                       AIR SEA DIR/SP/G            HT/PER HT/PER
                 (UTC) (F)     (DEG/KT/KT) (MB)    (FT/S) (FT/S)
CAPE MAY NJ      0848   51 45  120/  6/  8 1008.8F
LEWES DE         0848   57 44  150/  4/  5 1008.8F
OCEAN-CITY-INLET 0848   52 50  180/  3/  4 1009.6F
WACHAPREAGUE VA  0848   53 57   90/  1/  2 1008.8F
THOMAS POINT MD  0900   53 44  160/ 14/ 14   N/A
GOOSES REEF MD   0900   50 44  160/ 12/ 14 1008.2    1/ 2
COVE POINT MD    0848   48     190/  9/  9 1008.4F
SOLOMONS ISLAND  0848   58 45  180/ 11/ 12   N/A
BISHOPS HEAD MD  0848   50 51  140/  7/  8 1008.6F
PINEY POINT MD   0848          130/  6/  6   N/A
POTOMAC MD       0900   50 45  160/  8/  8 1007.2    1
CAMBRIDGE MD     0848   56 45  170/  4/  6 1007.4F
LEWISETTA VA     0848   60 48  210/  8/  9 1007.6F
RAPPAHANNOCK LGT 0848          170/  7/  7 1009.1F
YORK RVR RNG VA  0848   55     180/  9/  9 1007.6F
YORKTOWN VA      0848   59 50  230/  3/  4 1008.0F
JAMESTOWN VA     0900   58 53  110/  4/  4   N/A     0
DOMINION TERM VA 0848   58     120/  4/  5 1008.3F
KIPTOPEKE VA     0848      50  150/  5/  8   N/A
CHES BAY BRIDGE  0848   58 47  170/  6/  7 1008.3F
CAPE HENRY VA    0848   57     150/  4/  4   N/A
WILLOUBY STN VA  0848   58     150/  6/  6 1009.3F
S CRANEY ISL VA  0848   58     220/  1/  3 1008.1F
CAPE HENRY BUOY  0842      50                N/A     4/11   2/11
OFFSHORE WE BUOY 0851      51                N/A     6/11   2/11
64NM E OF VA BCH 0850   55 54   60/  4/  6 1008.5F   6/11   7/11
DUCK PIER NC     0848   56 49  140/  1/  2 1008.2F
44100 DUCK FRF   0835      51                N/A     6/10   3/11
44056 DUCK FRF   0830      51                N/A     5/10   2/11
OREGON INLET NC  0848          320/  3/  3   N/A
HATTERAS NC      0848   62 63  360/  4/  4 1008.1S
DIAMOND SHLS NC  0850   68 76  220/  6/  8 1008.2F   8/11   8/11
CAPE LOOKOUT NC  0900   63     350/  4/  4 1008.1F
$$




USA.gov is the U.S. government's official web portal to all federal, state and local government web resources and services.